Apodi, Brazil

3:52 PM BRT on September 04, 2015 (GMT -0300)
Dix Sept Rosado | | Change Station
CLOSE
Current Station
Airport
Location: Mocoro,
Elevation: 75 ft
Nearby Weather Stations

Elev 75 ft 5.20 °S, 37.36 °W | Updated 52 minutes ago

Partly Cloudy
Partly Cloudy
91 °F
Feels Like 100 °F
N
16
Wind Variable Wind from NE

Today
High -- | Low -- °F
--% Chance of Precip.
Yesterday
High -- | Low -- °F
Precip. -- in
5:29 AM 5:30 PM
Waning Gibbous, 57% visible
Pressure 29.89 in
Visibility 6.2 miles
Clouds Few 3000 ft
Heat Index 100 °F
Dew Point 73 °F
Humidity 55%
Rainfall 0.00 in
Snow Depth Not available.
UV 4 out of 12
Pollen Not available.
Air Quality Not available.
Flu Activity Not available.
METAR SBMS 041800Z 05014KT 9999 FEW030 33/23 Q1012
Pressure 29.89 in
Visibility 6.2 miles
Clouds Few 3000 ft
Heat Index 100 °F
Dew Point 73 °F
Humidity 55%
Rainfall 0.00 in
Snow Depth Not available.
UV 4 out of 12
Pollen Not available.
Air Quality Not available.
Flu Activity Not available.
METAR SBMS 041800Z 05014KT 9999 FEW030 33/23 Q1012

10-Day Weather Forecast

×

Almanac

Astronomy

Sep. 04, 2015 Rise Set
Actual Time
Civil Twilight
Nautical Twilight
Astronomical Twilight
Moon
Length of Visible Light
Length of Day
Tomorrow will be .
, % of the Moon is Illuminated

Today's Extremes

Country Highs Country Lows

Community

WunderPhotos

Upload Photos

1,852,262 photos uploaded!

WunderBlogs® & News

Nearby

Air Quality

  Air Quality AQ Index Pollutant
Not available.

Snow Depth

Station Depth Elevation

Earthquake Activity

City Distance Mag. Time & Date
Minimum magnitude displayed is 2.5.

Coastal Water Temperatures

Place Temperature

Stations

Nearby Weather Stations

Station Location Temp. Windchill Dew Point Humidity Wind Precip. Elev Updated Type